Location: Arapaho Elementary School
(32.9607°N, 96.7625°W)
Time: 11:25:49
(UTC+00:00)

Cosmos 2228 Rocket - Pass Details

Date: 07 July 2022
Orbit: 618 x 651 km, 82.5° (Epoch: 13 August)

Event Time Altitude Azimuth Distance (km) Brightness Sun altitude
Rises 10:20:19 0° 340° (NNW) 2,924 6.8 -12.3°
Reaches altitude 10° 10:22:45 10° 329° (NNW) 2,018 5.8 -11.9°
Maximum altitude 10:26:36 29° 270° (W) 1,168 4.0 -11.2°
Enters shadow 10:29:59 13° 214° (SSW) 1,853 4.9 -10.6°
